Location: Los Ranchitos
(37.9930°N, 122.5425°W)
Time: 07:25:11
(UTC+00:00)

X-37B - Pass Details

Date: 21 September 2020
Orbit: 382 x 392 km, 45.0° (Epoch: 15 October)

Event Time Altitude Azimuth Distance (km) Brightness Sun altitude
Exits shadow 11:23:28 11° 53° (NE) 1,323 4.1 -30.1°
Drops below altitude 10° 11:23:43 10° 56° (NE) 1,401 4.3 -30.0°
Sets 11:26:05 0° 73° (ENE) 2,256 5.6 -29.6°
